Погода в Качелае

Россия / Республика Мордовия     53°56′00″N   45°39′31″E
темп.,
°C
ветер,
м/с
пор.,
м/с
влажн.,
%
обл.,
%
осадки,
мм/ч
давл.,
гПа
погр.,
м
6 марта, сб
сб600:00−11зюз349673 0.0 101264
03:00−13з339659 0.1 101443
06:00−15з229725 0.0 101520
09:00−10зюз129320 0.0 1016133
12:00−6з118178 0.0 1016416
15:00−6з228188 0.0 1014504
18:00−11з129075 0.0 101421
21:00−11зюз128987 0.0 101421
7 марта, вс
вс700:00−12зюз229695 0.1 101327
03:00−15зюз229987 0.2 101320
06:00−17юз239878 0.0 101322
09:00−13юз489579 0.1 1013281
12:00−8юз7128696 0.0 1010672
15:00−7ююз9158798 0.0 1005830
18:00−6ююз91693100 1.0 10011140
21:00−5юз81794100 2.6 9981103
8 марта, пн
пн800:00−3зюз81495100 1.1 997968
03:00−10зюз358599 1.4 99887
06:00−14юз348927 0.0 99974
09:00−10юз7138859 0.0 999469
12:00−5зюз7118897 0.1 9991076
15:00−5зюз7119199 1.1 9991028
18:00−8з61291100 0.4 1002614
21:00−10з5129296 0.6 1005394
9 марта, вт
вт900:00−11з5119488 0.1 1007372
03:00−14з379794 0.1 1010152
06:00−17з239994 0.1 101221
09:00−14зсз249495 0.1 1014252
12:00−11зсз3487100 0.0 1014522
15:00−11сз3487100 0.1 1015605
18:00−16ссз229597 0.1 101526
21:00−18с129991 0.1 101820
10 марта, ср
ср1000:00−21ссз1210096 0.0 101820
03:00−23сз2210085 0.1 101920
06:00−26сз2210050 0.0 102120
09:00−22ссз269770 0.0 1022267
12:00−18ссз459096 0.0 1023450
15:00−17сз468896 0.0 1023572
18:00−23сз239469 0.0 102427
21:00−26сз129634 0.0 102620